GFSNW_850_thetae_132.txt.gz
Theta_e
312 312 308 306 306 306 308 309 313 307 306 310 307 310 308 307 308 308 309 308 309 311 310 311 311 310 310 308 309 311 309 311 314 311 308 308 310 312 311 311 309 310 309 310
311 312 311 306 308 308 308 309 309 308 305 314 311 308 308 308 309 309 310 310 309 308 310 311 310 310 308 308 309 310 309 309 309 306 308 308 311 311 311 307 308 311 309 310
311 312 312 311 306 307 307 306 315 308 307 305 309 309 309 310 308 308 308 309 308 309 310 309 310 310 308 307 309 308 308 308 308 308 306 310 311 310 310 311 313 309 309 309
310 311 312 312 310 306 307 306 307 305 312 309 307 308 308 309 310 308 308 309 309 309 310 310 310 309 309 308 310 308 310 310 308 308 307 306 307 308 310 311 311 309 309 309
310 310 311 312 312 310 307 307 307 306 305 304 307 306 309 308 309 309 308 309 308 309 309 309 310 309 310 311 309 310 308 310 308 309 308 308 308 308 308 308 309 309 309 310
309 310 310 311 311 312 311 308 306 306 302 305 305 307 308 308 308 307 307 307 309 309 308 306 306 305 306 307 310 310 310 310 310 310 306 307 308 307 307 307 307 308 309 309
309 309 310 310 310 311 311 311 308 305 308 305 305 306 307 307 307 307 306 306 308 306 306 306 304 304 304 306 306 307 309 309 309 311 308 311 305 304 306 307 307 307 307 307
309 309 309 310 310 310 310 310 310 309 308 303 303 304 306 304 304 306 306 306 306 306 305 307 306 303 304 304 302 305 305 309 309 310 308 308 305 303 305 306 307 305 306 306
309 309 309 309 309 309 309 309 309 310 310 310 303 304 304 307 305 303 304 305 305 306 305 306 306 307 304 306 305 302 304 305 308 306 308 311 305 304 303 304 308 304 304 304
309 309 309 309 309 309 309 309 308 309 309 309 305 306 307 303 302 305 302 305 305 305 307 307 306 307 303 305 306 307 306 307 309 308 308 309 306 304 303 310 308 303 303 302
309 309 309 308 308 309 308 307 307 307 307 308 307 307 305 303 304 308 302 306 305 305 307 307 306 306 305 304 303 306 307 308 308 308 309 310 304 304 307 304 303 301 301 300
309 309 309 309 308 308 308 307 306 305 305 307 307 307 306 306 305 304 304 303 303 306 306 304 304 307 304 306 309 302 306 308 309 309 310 305 303 304 303 301 300 300 299 299
309 309 309 309 309 308 308 307 305 304 304 305 304 305 306 305 305 304 304 303 303 304 304 304 304 307 305 308 306 305 303 303 306 305 305 305 305 303 300 300 300 300 300 300
309 309 309 308 309 308 306 305 303 303 303 303 303 303 302 303 303 304 303 303 303 303 304 305 306 306 303 306 305 304 304 302 304 304 304 302 302 301 300 299 298 298 298 298
309 309 309 308 307 306 304 302 302 303 303 304 304 303 302 303 303 302 302 302 302 302 303 304 306 303 303 302 301 304 303 306 306 307 302 304 303 299 298 297 296 296 296 296
308 308 308 307 305 303 301 303 303 303 302 302 304 301 302 302 302 301 301 301 301 301 302 302 301 301 302 305 305 303 302 303 303 304 302 301 299 298 296 295 294 294 294 294
309 308 307 305 303 301 301 302 302 302 302 303 303 302 300 299 299 298 298 299 300 300 301 300 300 300 301 302 305 303 301 301 301 299 299 297 296 295 294 294 294 293 293 293
309 306 303 301 300 300 299 299 300 301 301 301 302 302 299 298 297 297 298 298 298 299 299 298 300 299 299 303 302 301 301 298 295 295 295 295 295 295 294 293 293 293 292 292
303 301 299 299 298 298 298 297 298 299 299 300 300 301 302 297 297 297 297 297 298 297 299 299 299 300 301 302 301 300 298 296 296 296 295 295 294 294 293 293 292 292 291 291
299 298 298 296 296 297 296 297 297 297 298 298 298 298 300 297 296 296 297 296 298 300 298 297 300 301 300 300 300 299 298 296 295 294 294 293 293 292 292 292 292 291 291 291
298 296 296 296 296 296 296 296 296 297 297 297 297 297 298 297 299 300 296 299 298 300 299 299 300 299 297 297 298 295 295 295 293 292 292 292 292 292 291 291 291 291 290 290
296 295 295 296 295 295 295 295 295 296 297 297 297 296 296 297 297 299 297 300 298 300 296 298 298 298 296 297 298 297 297 295 294 292 292 292 292 291 291 291 291 290 290 291
294 295 295 294 293 295 294 293 295 296 295 295 295 296 296 296 297 298 299 300 299 295 298 297 297 295 296 295 295 295 295 293 292 292 292 292 291 291 291 291 290 290 291 292
294 295 294 293 292 292 293 292 293 295 296 295 295 295 295 295 296 298 299 297 295 297 297 297 297 295 296 296 296 296 294 292 292 292 292 292 291 291 291 290 290 290 291 293
294 293 293 290 290 290 291 292 294 295 295 295 295 294 294 295 296 296 298 297 296 296 297 296 295 296 296 296 296 295 293 292 292 292 292 292 291 291 291 290 290 291 292 292
293 292 290 288 290 289 290 291 293 295 296 296 296 296 296 297 296 296 297 298 296 296 296 296 297 297 297 297 295 294 293 293 293 292 292 292 291 291 291 290 291 292 291 291
291 291 291 291 291 291 292 293 294 295 296 297 295 296 295 290 295 297 297 296 295 294 294 294 295 295 295 294 294 293 293 293 292 292 292 292 291 291 291 291 292 291 291 291

GFSNW_850_thetae_135.txt.gz
Theta_e
311 311 308 307 306 306 308 310 315 307 306 314 312 313 311 308 310 310 311 310 311 312 312 312 312 311 312 310 311 312 311 312 315 313 310 310 312 312 312 312 313 310 311 311
311 311 312 307 307 308 308 312 312 307 307 317 313 310 310 310 311 311 311 311 311 311 312 312 312 312 310 310 311 311 311 311 312 310 310 310 312 311 312 312 310 311 310 312
310 311 311 311 307 306 306 310 317 312 310 310 311 311 311 312 310 311 310 311 311 312 312 311 312 312 310 309 310 308 309 310 311 313 309 312 311 311 311 311 313 311 311 311
310 310 311 312 311 308 307 309 311 308 315 311 310 311 311 311 312 310 310 311 311 312 312 311 311 311 311 310 310 310 311 311 310 310 309 308 307 308 311 312 311 310 310 310
309 310 310 311 312 311 308 311 311 308 309 308 310 308 311 310 310 311 310 310 310 311 310 310 311 311 311 312 311 311 311 311 310 311 310 309 310 309 309 309 310 310 310 310
308 309 310 310 310 311 310 308 306 309 307 309 309 310 310 310 310 309 309 309 310 310 310 309 309 308 309 309 311 312 311 312 312 311 308 309 309 309 309 309 309 309 310 311
308 308 309 310 310 310 311 310 309 310 312 309 308 309 309 310 310 309 309 309 310 307 306 306 306 307 308 309 309 310 311 311 311 312 310 311 308 306 308 309 309 309 309 308
308 308 309 309 310 310 310 310 311 311 313 309 307 308 309 308 307 308 308 308 307 307 307 308 308 306 306 307 306 308 309 310 310 311 311 311 309 306 306 308 308 307 308 307
308 308 309 309 309 309 310 309 309 310 313 313 306 307 307 311 309 306 307 305 306 306 308 308 309 310 308 308 307 304 307 308 310 308 309 313 307 306 305 306 309 305 305 306
308 308 308 309 308 309 309 309 309 309 312 309 306 310 310 307 307 310 306 307 306 306 308 309 310 311 306 308 308 308 308 308 310 310 310 310 308 306 305 310 308 305 304 303
309 309 308 308 309 309 308 308 308 307 309 309 307 306 306 306 307 311 306 308 307 308 310 310 310 308 307 306 307 308 309 310 310 310 312 312 306 305 308 306 305 303 302 301
309 309 309 309 309 308 309 308 307 306 305 308 307 307 306 306 306 306 306 307 306 309 309 308 308 308 307 308 311 306 308 309 311 311 312 307 306 306 304 302 302 301 301 300
308 308 308 309 308 309 308 307 306 305 304 306 305 305 306 306 306 306 306 305 305 305 305 307 308 308 309 311 310 308 306 306 307 307 309 307 306 304 301 301 300 299 299 298
308 308 309 309 308 308 307 306 305 304 304 305 305 304 304 303 304 305 304 304 303 303 304 307 308 308 307 309 307 307 307 304 306 306 306 304 304 302 300 299 298 297 296 295
308 308 308 309 308 308 306 305 304 303 304 307 305 303 302 303 302 302 303 303 303 304 305 306 307 306 305 306 304 306 304 306 307 308 306 306 304 301 299 297 296 294 294 294
308 308 307 308 307 306 304 302 303 304 303 302 306 301 301 301 302 301 301 301 301 303 304 305 305 302 304 307 308 307 305 304 304 306 304 303 301 299 295 295 294 294 293 293
309 308 308 308 306 304 303 303 303 303 303 302 304 304 300 299 299 299 299 300 300 301 303 302 303 302 302 305 307 307 303 303 302 302 301 300 298 297 294 294 293 293 293 294
308 309 308 305 303 302 302 301 301 302 300 301 302 303 300 299 298 299 298 299 299 300 301 300 301 301 301 303 304 304 304 302 299 297 298 298 295 295 295 293 293 293 293 292
308 307 305 302 300 299 299 299 299 299 300 300 300 303 306 297 297 297 297 298 300 298 300 300 300 302 303 303 303 303 302 298 296 296 295 295 294 294 293 293 292 293 292 292
304 303 300 299 298 298 297 297 298 298 298 297 298 300 301 298 298 299 299 298 300 300 300 298 300 301 301 301 301 301 300 297 296 295 294 293 293 292 292 292 292 291 291 291
300 299 298 297 297 297 297 297 298 297 298 297 297 298 300 297 301 302 298 300 299 300 300 299 301 301 301 300 300 299 297 296 295 293 293 292 292 292 292 291 291 291 291 290
300 300 297 296 295 295 297 297 296 296 298 298 297 297 297 297 298 300 298 299 298 300 297 299 300 301 298 297 299 296 296 294 293 292 292 292 292 292 291 291 291 291 290 290
297 295 295 295 295 297 296 296 296 297 296 296 296 296 297 296 296 298 299 300 301 297 299 299 300 298 297 297 297 296 296 293 292 292 292 292 292 292 292 291 291 291 290 290
294 294 295 295 294 295 297 296 297 296 297 296 296 296 297 296 297 299 300 300 297 299 298 298 300 298 297 295 296 296 294 293 293 293 292 292 292 292 292 292 292 291 290 290
293 293 295 294 293 291 292 292 294 295 296 296 296 295 296 296 298 297 299 298 297 298 298 299 298 295 296 295 295 295 295 295 294 293 292 292 292 292 292 292 292 291 290 291
293 292 292 290 292 291 291 293 294 295 295 296 296 297 297 298 298 298 298 299 299 298 299 297 295 295 295 296 296 296 296 294 293 293 292 292 292 292 292 292 292 292 290 291
292 292 292 292 291 293 293 293 294 295 296 298 296 297 297 294 296 298 298 298 298 297 296 294 294 294 293 294 294 295 294 293 292 291 291 291 291 291 291 291 292 291 290 290

GFSNW_850_thetae_138.txt.gz
Theta_e
311 311 309 307 307 307 308 312 317 306 307 315 314 313 311 309 311 311 311 311 312 312 312 312 312 311 311 310 311 312 310 312 311 313 309 309 310 312 309 309 311 307 307 305
310 311 311 309 306 308 308 313 312 307 310 319 313 310 310 311 311 311 312 312 312 311 312 312 312 312 310 310 311 311 311 310 309 309 309 310 310 309 311 310 308 308 307 307
310 310 311 311 309 306 306 311 317 313 311 311 311 311 311 312 310 311 311 311 311 311 311 311 312 312 310 309 311 309 309 309 309 310 308 310 310 310 309 310 306 309 307 308
308 310 310 311 311 309 308 310 311 310 316 311 311 311 312 312 312 311 311 311 311 312 311 311 311 312 310 310 310 310 310 310 308 309 308 308 306 307 309 309 309 308 309 307
307 309 310 310 311 311 309 313 312 309 309 309 311 308 311 311 310 311 311 311 311 311 311 310 311 311 310 311 311 310 310 309 309 305 309 308 308 307 307 307 310 310 309 309
307 308 309 310 310 311 311 309 307 310 308 309 309 310 310 310 310 309 309 310 310 310 310 309 309 308 309 309 311 310 310 309 308 310 308 307 306 307 307 307 307 308 308 308
307 308 308 309 310 310 310 310 309 310 311 309 309 310 310 310 310 310 309 309 309 308 307 307 307 308 308 308 309 310 310 310 308 306 307 307 307 305 305 307 308 307 307 308
308 307 308 309 309 309 309 309 310 312 313 310 307 309 309 309 308 309 308 308 307 307 307 307 307 305 306 306 306 308 308 308 306 306 307 308 307 306 306 308 308 307 306 306
308 308 308 308 308 309 309 309 309 310 313 310 308 308 308 309 308 306 307 306 306 306 308 307 308 308 307 307 306 305 305 307 307 307 307 309 307 305 306 306 306 305 305 305
309 308 308 308 308 308 308 308 308 309 312 310 307 309 308 309 309 308 307 306 306 307 306 307 308 308 306 307 307 305 305 306 307 307 307 308 305 305 305 307 306 305 304 303
309 308 308 308 308 308 308 308 308 307 309 310 308 307 307 307 308 309 307 307 307 306 307 308 309 306 304 305 307 307 306 306 306 307 308 308 306 305 306 305 304 303 302 302
309 308 308 308 308 309 308 308 307 306 306 309 308 307 306 306 307 308 307 307 307 309 307 307 305 306 304 305 307 305 306 307 308 307 308 306 306 305 304 303 303 302 301 301
307 308 308 308 308 308 308 308 307 306 305 306 305 305 306 307 306 306 307 306 306 306 306 307 306 306 306 308 307 306 305 306 305 305 307 305 305 304 303 302 301 300 299 298
307 307 308 308 308 308 308 307 306 305 304 304 305 304 304 305 305 306 305 305 304 305 305 306 306 306 307 307 306 305 306 304 304 304 305 305 305 304 302 300 299 297 296 295
307 307 307 307 308 308 307 306 305 304 304 306 306 304 302 302 302 303 304 304 303 304 305 304 305 306 305 305 303 304 304 304 304 305 305 305 304 303 301 299 297 295 294 294
307 307 307 307 307 308 306 304 303 303 303 302 303 302 300 301 301 301 302 302 302 303 304 305 305 305 304 304 305 307 308 307 306 305 304 304 303 302 298 297 294 294 294 294
307 308 308 308 308 308 306 305 303 303 303 302 302 304 300 300 300 300 300 300 301 302 302 303 303 302 303 302 305 307 306 305 304 303 303 300 300 297 295 294 294 293 293 293
307 308 308 308 308 306 305 305 303 302 302 300 300 300 299 299 299 299 299 299 300 300 301 301 301 301 301 302 303 305 305 303 303 302 301 300 299 295 295 294 293 293 292 292
307 308 307 305 303 303 303 302 302 301 301 301 299 301 303 298 298 298 298 299 300 299 300 300 300 301 302 301 302 303 303 302 300 298 297 296 295 295 294 293 293 292 292 291
307 305 302 300 300 301 301 299 298 297 299 298 299 300 301 299 298 299 299 298 300 300 299 299 299 300 301 301 302 302 303 302 297 296 295 294 294 293 293 292 292 291 291 291
305 301 300 298 297 298 298 297 297 297 298 297 297 299 299 297 300 300 299 299 297 299 297 297 299 300 299 300 300 301 302 300 297 296 295 293 293 292 292 292 292 292 291 291
304 302 297 297 296 296 297 297 297 297 298 298 297 297 299 297 299 300 298 298 297 298 297 298 298 296 298 298 300 299 298 296 294 293 293 292 292 292 292 292 292 292 292 292
301 299 296 296 295 296 296 296 294 296 296 297 296 296 297 297 297 299 298 299 299 297 298 298 295 298 297 297 298 297 295 294 293 292 292 292 292 293 292 292 292 292 292 292
298 295 294 297 294 296 297 295 295 296 297 296 297 296 297 297 297 299 299 299 296 298 299 295 295 296 296 296 297 296 296 292 293 294 293 293 292 292 292 292 292 292 292 292
294 294 296 294 294 293 293 294 294 296 296 296 296 296 296 296 298 297 299 298 298 298 296 296 295 295 296 295 295 296 295 294 295 296 294 293 292 292 291 291 291 291 291 291
293 292 293 291 293 292 292 293 295 296 296 296 297 296 297 298 297 298 298 299 298 296 295 297 294 294 294 293 293 293 294 294 294 295 294 293 291 290 290 291 291 291 290 291
292 293 292 292 293 294 293 294 295 295 296 298 296 297 297 292 297 298 296 296 295 297 297 294 294 294 294 293 293 292 291 291 292 292 290 290 290 290 290 290 290 290 290 290

GFSNW_850_thetae_141.txt.gz
Theta_e
310 310 310 307 307 307 309 313 310 306 309 311 308 306 309 310 310 311 310 310 310 310 310 310 309 311 309 310 310 311 309 309 306 309 309 308 309 310 305 303 309 304 304 303
309 310 310 310 307 307 309 312 311 309 311 305 303 308 309 310 310 310 310 310 310 310 310 310 310 310 309 309 309 309 309 307 304 305 306 307 309 307 310 306 304 305 303 302
307 309 309 310 309 306 307 311 307 312 311 310 307 308 310 310 310 310 310 310 310 310 310 309 310 311 309 309 310 308 308 307 306 305 308 308 308 308 307 307 303 305 305 306
306 308 309 309 310 308 310 310 307 309 308 308 308 308 309 311 310 310 310 310 310 310 310 309 310 310 309 309 309 309 307 306 305 307 307 307 306 308 307 307 306 305 304 304
306 307 308 309 309 310 310 311 310 309 308 309 309 308 309 310 308 309 310 309 309 309 309 308 309 309 308 309 309 309 307 305 306 303 307 306 306 305 304 306 307 307 306 307
307 306 307 308 309 309 311 309 307 309 307 307 305 307 308 309 309 309 309 308 308 309 308 308 308 308 308 309 308 308 308 306 304 306 307 305 302 303 305 305 304 307 308 307
307 307 306 308 308 309 309 309 309 310 308 305 306 309 309 309 309 308 309 308 308 308 307 307 307 307 307 308 307 308 307 306 303 302 304 302 302 304 305 304 305 304 305 305
308 307 307 307 308 308 309 309 309 311 309 307 307 308 308 308 308 308 308 308 307 306 307 304 304 303 304 305 302 303 304 305 303 304 304 303 306 305 305 307 306 305 304 303
308 308 307 307 307 308 308 308 308 309 311 308 307 307 308 305 304 305 307 307 307 307 306 304 305 306 304 306 305 303 304 304 304 304 305 307 306 304 305 305 305 304 304 304
308 308 308 307 307 308 308 308 308 308 311 310 307 306 306 308 306 304 306 306 306 306 303 305 305 305 303 306 305 303 304 304 306 306 305 306 304 304 305 305 305 304 304 304
307 309 308 308 308 308 308 308 308 307 308 309 310 307 307 307 307 305 306 305 305 304 305 304 305 304 303 304 303 303 303 303 304 304 306 306 305 304 304 303 304 304 303 302
306 308 308 308 308 308 308 308 308 307 306 307 308 308 307 307 307 308 307 307 307 306 304 304 302 304 302 302 305 303 305 305 305 305 306 306 306 305 305 305 304 303 302 301
306 307 308 308 308 308 308 308 308 307 306 306 306 305 305 306 306 306 307 306 306 306 307 305 303 304 302 305 303 303 303 305 305 305 305 305 306 305 305 303 303 302 301 300
306 306 307 307 308 308 308 308 308 307 305 303 304 304 304 304 305 305 305 305 305 305 305 304 303 304 305 305 304 304 305 303 303 303 303 305 304 304 304 302 301 299 298 296
306 307 307 307 307 308 308 308 307 307 306 305 305 304 303 303 302 303 304 304 304 304 304 302 303 305 304 303 302 303 304 303 303 305 305 304 304 304 302 301 299 297 295 294
306 308 307 307 307 307 308 306 305 304 304 303 298 302 301 301 301 302 302 303 302 303 304 303 305 305 303 302 303 305 306 307 307 305 306 305 305 302 301 300 298 295 294 295
307 308 308 307 307 308 307 306 304 303 303 302 300 300 301 300 300 300 301 301 301 302 303 302 302 302 303 299 303 305 307 306 305 305 304 301 301 301 300 299 296 294 294 293
306 307 308 308 308 308 307 306 304 303 303 302 294 295 299 299 299 299 299 299 300 300 301 301 300 301 301 302 302 304 304 304 303 303 303 302 302 299 296 294 294 293 293 292
306 308 308 308 305 305 305 305 304 302 302 300 298 295 299 298 298 298 299 299 299 299 299 300 300 300 301 301 302 302 303 303 303 302 301 300 299 296 294 294 293 293 292 292
306 307 305 301 301 302 304 302 303 301 299 299 297 299 299 298 298 298 298 298 299 300 298 298 299 300 300 300 300 300 301 303 302 299 295 295 295 294 293 293 292 291 292 292
306 304 301 299 298 301 301 298 298 297 296 297 297 298 297 298 299 299 299 299 298 298 296 298 295 298 298 298 298 300 300 302 301 299 296 294 293 292 292 292 292 292 292 292
305 304 298 297 298 297 297 297 296 296 294 296 296 297 299 297 299 299 298 299 297 299 296 297 296 295 298 297 299 300 301 301 296 295 294 292 292 292 292 292 292 292 292 292
304 302 297 298 295 295 296 293 295 289 295 297 296 297 298 297 298 299 297 298 299 297 298 297 295 297 296 297 297 296 296 295 293 292 293 293 293 293 294 294 293 291 291 291
302 297 295 297 293 292 291 290 289 295 297 297 297 296 297 297 297 298 299 298 296 297 297 295 293 296 295 296 297 295 294 293 292 294 294 295 295 296 296 294 291 290 290 290
296 296 296 294 293 293 294 295 296 297 297 296 296 296 296 295 296 296 297 297 296 295 294 294 295 294 294 294 295 296 296 295 294 295 296 296 295 294 294 291 290 289 289 289
293 293 292 292 291 290 292 294 295 296 296 296 297 294 296 296 296 297 298 296 294 294 294 294 294 294 294 293 293 292 292 292 291 291 290 291 292 292 290 290 290 290 290 290
292 292 292 293 293 292 293 295 295 296 296 295 295 294 295 292 297 296 294 295 294 297 297 296 294 294 293 293 292 292 291 290 291 291 290 290 290 290 290 290 289 290 290 290

GFSNW_850_thetae_144.txt.gz
Theta_e
308 309 310 310 306 307 310 312 305 307 310 309 304 305 308 309 310 310 309 309 309 309 308 308 309 310 308 309 309 309 308 307 304 307 307 308 307 306 305 304 305 303 303 304
306 309 309 310 309 306 308 311 311 310 310 303 302 308 309 310 310 309 310 310 309 309 309 310 309 309 309 309 309 309 308 306 303 304 305 306 308 307 306 304 303 303 302 302
306 307 309 309 310 307 308 311 305 311 310 308 305 307 309 308 309 309 309 309 309 309 309 307 310 310 309 309 309 308 307 305 304 303 306 306 306 306 306 306 303 305 302 305
306 306 307 309 309 310 311 309 305 309 306 307 307 307 308 309 308 309 309 309 309 309 309 309 310 309 308 309 309 308 305 303 304 305 305 306 306 306 306 306 305 304 303 303
307 306 306 308 309 310 310 309 309 308 307 307 307 306 308 308 308 308 309 308 308 308 308 307 307 308 307 308 308 308 305 303 306 302 305 304 305 304 303 305 306 304 304 304
307 306 306 306 308 309 310 309 307 308 305 305 304 305 308 308 307 308 308 308 307 308 307 307 307 307 307 307 306 306 306 304 302 303 304 303 301 302 304 303 302 305 306 306
307 307 306 306 307 308 309 309 309 309 308 304 304 307 308 308 308 308 308 308 307 307 308 307 306 306 306 307 306 306 305 304 301 301 302 299 301 303 304 303 303 302 304 304
305 307 306 306 306 307 308 308 309 311 309 306 306 308 307 307 307 307 307 307 307 306 306 303 304 302 303 303 302 304 304 303 303 303 302 302 305 303 303 304 304 302 303 302
303 307 307 306 306 307 307 308 308 309 310 307 306 307 307 304 304 304 306 307 307 306 304 302 304 305 304 305 305 302 303 302 303 303 305 305 304 304 305 304 304 303 303 302
305 306 308 307 306 306 307 308 308 308 309 309 306 305 305 307 305 303 305 306 305 306 301 304 303 304 302 305 305 303 304 304 305 304 304 305 303 304 305 306 306 303 304 304
306 305 308 307 307 307 308 308 308 308 308 309 310 306 307 306 306 304 305 305 304 303 304 303 303 304 303 302 302 302 304 303 304 304 306 306 304 303 304 303 303 304 303 303
305 306 307 308 307 307 308 308 308 308 307 307 309 308 308 307 307 307 306 306 306 305 302 302 301 304 300 301 304 301 303 303 303 304 305 304 305 304 305 305 305 304 304 303
306 306 306 307 308 308 307 308 308 307 307 306 306 306 306 306 306 306 307 306 306 307 306 304 302 304 300 303 301 303 302 303 303 304 305 303 305 305 305 305 305 304 303 302
306 306 306 306 307 308 308 308 308 307 306 304 304 305 305 305 305 305 305 305 305 305 305 304 302 303 303 303 303 302 304 302 302 301 302 304 305 305 305 304 303 303 302 301
306 305 306 306 306 306 308 308 308 307 306 304 305 305 304 304 303 303 304 304 304 304 303 300 302 304 303 301 300 302 304 303 302 306 305 305 305 306 305 304 303 302 300 297
306 305 306 307 306 306 307 308 307 307 306 305 298 302 301 301 301 301 302 303 303 303 304 302 304 304 303 300 300 304 306 307 307 305 305 305 305 305 304 303 301 299 296 295
306 306 306 307 307 307 307 306 305 304 303 303 300 299 300 300 300 300 301 301 302 302 303 301 301 302 303 298 301 304 305 305 305 305 305 303 303 303 301 300 298 295 294 294
307 306 306 309 308 308 307 307 304 303 304 303 292 293 298 299 299 299 300 300 300 301 301 301 300 301 300 301 301 303 303 303 303 303 303 303 303 301 299 297 295 294 293 293
307 306 306 309 308 306 307 306 306 305 304 301 297 292 294 298 298 298 299 299 298 299 299 299 300 300 301 301 301 301 301 302 302 302 301 301 301 299 296 294 293 293 293 292
307 305 306 305 304 305 306 304 303 302 301 301 297 297 296 298 298 297 298 298 297 295 297 298 299 300 300 300 299 298 299 299 300 300 298 298 297 295 294 294 292 292 292 292
306 305 302 300 300 303 303 301 299 298 297 298 298 298 296 298 295 296 298 296 296 297 295 298 297 297 298 297 297 299 300 299 300 300 299 297 296 294 293 292 293 293 292 292
304 304 300 299 299 299 298 297 296 295 295 295 295 297 298 298 300 299 297 299 297 295 295 297 296 294 297 296 298 299 300 301 299 296 295 293 292 292 293 295 296 295 294 293
304 303 299 298 296 296 297 294 295 291 294 296 296 297 298 297 299 298 297 297 296 295 297 295 293 295 295 296 296 295 295 295 295 293 292 293 294 295 295 295 295 294 293 291
303 298 296 298 294 293 292 291 290 295 296 296 297 295 296 296 296 297 296 296 295 297 298 293 290 295 295 296 295 295 294 293 292 293 294 294 294 295 295 293 293 293 291 290
299 298 299 294 293 292 294 294 295 296 297 297 296 296 296 293 294 297 297 295 297 296 292 292 294 293 293 294 293 294 294 295 295 294 294 295 294 292 290 290 290 290 289 289
295 293 291 291 290 290 293 295 295 296 296 296 296 294 293 293 296 295 296 296 293 292 290 294 294 294 293 293 292 292 292 292 291 291 290 290 290 290 290 290 290 290 289 290
293 291 292 292 292 291 293 295 296 296 296 294 294 292 294 293 291 292 292 293 292 297 297 294 294 293 292 292 292 290 290 291 291 291 291 290 290 290 290 289 289 290 290 290

GFSNW_850_thetae_147.txt.gz
Theta_e
305 307 309 309 308 306 308 310 302 308 310 307 302 305 307 308 308 309 309 308 309 308 307 308 309 309 307 308 308 307 307 305 304 306 306 307 305 306 305 305 305 302 302 304
306 305 308 309 309 306 307 310 311 310 310 303 301 307 308 309 309 308 308 309 308 308 308 309 309 309 308 309 308 308 306 305 302 303 303 305 307 306 303 301 302 302 302 303
306 305 306 308 309 310 309 310 304 309 308 306 304 307 308 308 309 308 309 308 308 308 308 306 309 309 308 308 308 308 306 303 303 303 305 303 307 305 305 305 303 303 301 303
306 306 305 306 308 310 310 307 305 308 304 306 305 306 307 308 307 308 309 308 308 308 308 308 309 309 308 308 308 307 303 303 303 303 303 305 306 305 304 305 304 305 304 302
306 306 305 305 307 309 310 307 308 306 306 306 306 305 307 308 308 307 308 308 308 307 307 306 306 308 306 307 307 306 303 303 305 301 304 304 304 303 302 304 306 304 304 304
303 306 306 305 305 307 309 309 307 308 304 303 303 304 306 307 307 307 308 307 306 307 307 307 306 307 306 306 305 305 304 303 302 302 302 302 301 301 304 303 301 304 304 305
303 306 306 306 305 306 308 308 309 309 307 302 303 306 307 307 307 306 307 307 306 307 307 306 306 305 306 306 304 305 303 302 300 300 301 299 301 300 302 302 302 301 302 303
304 305 307 306 305 305 306 308 308 310 307 305 305 307 307 307 307 306 306 307 307 306 306 302 303 301 303 303 301 303 302 303 303 302 301 301 304 302 302 303 303 301 302 301
305 303 307 307 306 306 306 307 308 308 309 306 306 306 307 304 303 304 306 306 306 306 302 301 305 304 303 305 304 301 302 301 302 302 304 305 303 304 304 304 304 302 302 301
305 305 306 307 307 306 306 307 307 308 308 309 306 305 305 306 304 302 305 305 306 306 301 304 303 303 302 305 304 304 304 304 305 304 304 304 302 303 304 306 306 303 304 303
306 305 305 307 307 307 307 307 307 307 307 308 309 306 306 306 306 304 304 304 304 302 303 302 302 302 302 302 302 302 304 303 304 304 305 306 304 303 304 303 303 304 304 304
307 305 306 306 307 307 307 307 307 307 307 306 308 308 307 306 307 307 306 305 305 305 301 300 300 304 299 300 304 300 303 302 302 304 305 304 305 304 305 305 305 304 304 304
307 306 305 306 306 307 307 307 307 307 307 306 306 306 306 306 306 306 307 306 306 306 305 303 301 304 299 302 300 301 301 302 303 304 304 303 305 306 306 305 305 305 304 303
308 306 305 305 305 306 307 307 307 307 306 304 304 305 305 305 305 305 305 305 305 306 305 304 301 303 302 302 302 301 303 301 301 301 302 304 306 306 306 305 305 304 303 303
310 307 305 305 305 306 306 307 307 307 306 304 305 305 304 303 303 303 304 303 304 305 304 299 301 302 301 300 299 301 303 302 302 304 305 304 305 306 306 306 305 303 303 301
311 308 306 305 306 305 305 306 307 308 307 305 298 302 301 301 301 301 302 303 303 303 304 301 303 303 303 299 300 303 305 306 306 305 305 305 304 305 305 305 302 302 300 298
311 309 306 305 306 307 306 307 306 305 305 304 300 298 300 300 300 300 301 301 302 302 303 301 300 302 303 298 300 304 305 304 304 304 304 303 304 304 303 302 301 299 296 295
311 310 306 305 306 308 307 306 306 303 303 303 292 293 298 299 299 299 300 300 301 301 301 300 299 300 299 299 300 303 302 302 303 303 301 301 302 302 301 299 298 295 294 293
310 310 307 306 307 306 307 306 307 305 304 302 296 293 294 297 298 299 299 299 298 299 298 299 300 298 301 301 301 301 301 299 299 300 301 301 301 300 298 296 294 293 293 292
308 309 306 305 304 305 307 305 305 303 302 302 298 297 296 298 297 297 297 297 295 298 297 298 300 301 301 301 300 298 299 299 300 298 300 300 299 298 295 294 293 292 292 293
306 304 301 301 302 305 305 301 300 300 298 299 300 299 296 298 296 297 298 294 294 291 293 296 298 296 296 298 298 297 299 300 299 299 299 299 299 296 294 293 293 294 295 295
306 303 300 299 300 300 299 299 297 297 299 296 296 296 299 298 300 298 297 297 295 297 294 297 296 293 296 296 297 298 299 300 299 298 297 296 295 294 292 294 295 295 294 294
304 303 299 299 297 297 299 296 294 295 293 295 296 297 298 298 299 298 295 296 295 294 297 297 291 295 295 296 296 295 296 296 295 294 293 292 292 293 294 294 294 293 292 292
304 299 296 298 296 296 294 292 292 296 296 295 298 294 296 297 295 295 293 295 295 293 298 292 288 294 296 296 295 294 293 292 292 292 293 294 294 293 293 293 291 290 290 290
301 298 300 297 294 292 293 294 295 295 296 297 296 295 295 293 294 296 295 294 297 297 293 289 294 293 294 294 293 293 293 293 293 293 293 293 293 291 290 290 289 289 289 289
298 296 293 292 292 290 290 294 293 295 296 297 296 293 293 295 293 293 297 292 291 291 287 295 293 293 292 292 291 292 291 291 291 291 291 291 290 290 290 290 290 289 289 289
293 291 292 293 294 293 292 295 295 296 297 292 293 291 294 291 289 292 289 290 290 295 296 294 293 293 293 291 290 290 290 290 290 290 290 290 289 289 289 289 289 289 289 290